Home   Weather   Stephenville   Past weeks

Flag for Canada Past Weather in Stephenville, Newfoundland and Labrador, Canada — Yesterday and Last 2 Weeks

Now
25 °F

Snow flurries. Overcast.


Feels Like: 11 °F
Forecast: N/A
Wind: 18 mph from West

Location: Stephenville

Current Time: Dec 17, 2017 at 6:04:29 pm

Latest Report: Dec 17, 2017 at 5:30 pm


Visibility: 15 mi

Pressure: 29.69 "Hg

Humidity: 74%

Dew Point: 18 °F

Location of StephenvilleLocation

Past Weather in Stephenville — Graph

°F

Stephenville Temperature Yesterday

Maximum temperature yesterday: 28 °F (at 2:30 am)
Minimum temperature yesterday: 21 °F (at 9:30 pm)
Average temperature yesterday: 25 °F

High & Low Weather Summary for the Past Weeks

 TemperatureHumidityPressure
High50 °F (Dec 10, 12:30 pm)100% (Dec 2, 7:01 pm)30.50 "Hg (Dec 2, 7:01 pm)
Low19 °F (Dec 17, 3:30 am)55% (Dec 11, 10:30 am)28.92 "Hg (Dec 13, 9:30 pm)
Average32 °F81%29.78 "Hg
* Reported Dec 2 4:30 pm — Dec 17 4:30 pm, Stephenville. Weather by CustomWeather, © 2017

Note: Actual official high and low records may vary slightly from our data, if they occured in-between our weather recording intervals... More about our weather records

Advertising

Stephenville Weather History for the Previous 24 Hours

Scroll right to see more
 ConditionsComfort  
Time TempWeatherWind HumidityBarometerVisibility
4:30 pm
Sun, Dec 17
25 °FSnow flurries. Overcast.17 mph74%29.67 "Hg15 mi
4:20 pm25 °FSnow flurries. Overcast.21 mph74%29.67 "Hg15 mi
3:30 pm25 °FOvercast.16 mph80%29.64 "Hg15 mi
2:30 pm25 °FMostly cloudy.20 mph80%29.62 "Hg15 mi
1:30 pm25 °FOvercast.18 mph74%29.60 "Hg15 mi
1:10 pm25 °FOvercast.13 mph80%29.60 "Hg15 mi
12:30 pm25 °FLight snow. Overcast.15 mph74%29.59 "Hg15 mi
11:30 am25 °FLight snow. Overcast.17 mph74%29.58 "Hg15 mi
10:30 am25 °FLight snow. Overcast.14 mph74%29.56 "Hg15 mi
9:43 am23 °FLight snow. Overcast.15 mph80%29.55 "Hg10 mi
9:30 am23 °FLight snow. Overcast.14 mph86%29.54 "Hg1 mi
8:30 am23 °FLight snow. Overcast.15 mph80%29.51 "Hg1 mi
8:03 am23 °FLight snow. Overcast.14 mph80%29.50 "Hg1 mi
7:30 am21 °FSnow flurries. Mostly cloudy.16 mph86%29.49 "Hg3 mi
6:30 am21 °FSnow flurries. Mostly cloudy.18 mph80%29.47 "Hg3 mi
5:30 am21 °FSnow flurries. Overcast.20 mph74%29.46 "Hg8 mi
4:30 am21 °FSnow flurries. Overcast.16 mph74%29.45 "Hg15 mi
3:30 am19 °FSnow flurries. Overcast.18 mph79%29.44 "Hg12 mi
2:30 am21 °FSnow flurries. Overcast.20 mph74%29.41 "Hg12 mi
1:30 am23 °FSnow flurries. Overcast.20 mph74%29.39 "Hg6 mi
12:30 am23 °FSnow flurries. Overcast.14 mph80%29.38 "Hg6 mi
11:58 pm
Sat, Dec 16
21 °FSnow flurries. Overcast.9 mph93%29.38 "Hg2 mi
11:37 pm21 °FBlizzard. Ice fog.12 mph86%29.39 "Hg0 mi
10:30 pm23 °FSnow flurries. Overcast.14 mph74%29.38 "Hg2 mi
10:11 pm23 °FSnow flurries. Mostly cloudy.14 mph74%29.38 "Hg15 mi
9:30 pm21 °FSnow flurries. Overcast.12 mph80%29.39 "Hg2 mi
9:24 pm23 °FSnow flurries. Ice fog.15 mph74%29.39 "Hg1 mi
8:30 pm23 °FSnow flurries. Passing clouds.13 mph68%29.38 "Hg15 mi
7:30 pm25 °FSnow flurries. Passing clouds.14 mph69%29.37 "Hg15 mi
6:30 pm25 °FSnow flurries. Overcast.9 mph74%29.37 "Hg15 mi
Weather by CustomWeather, © 2017

See weather overview